| time (UTC) | temp C | wind direction | speed KPH | gust KPH | rain 1hr cm | rain 24hr cm | rain mn cm | humidity % | barometer mb |
| 20260506084731 | 24 | 123 | 6.4 | 9.7 | 0.00 | 0.00 | 0.00 | 88 | 1009.8 |
| 20260506084227 | 24 | 171 | 8.0 | 9.7 | 0.00 | 0.00 | 0.00 | 88 | 1009.8 |
| 20260506083724 | 24 | 153 | 3.2 | 8.0 | 0.00 | 0.00 | 0.00 | 88 | 1009.5 |
| 20260506083222 | 24 | 163 | 6.4 | 9.7 | 0.00 | 0.00 | 0.00 | 88 | 1009.5 |
| 20260506082719 | 24 | 194 | 4.8 | 11.3 | 0.00 | 0.00 | 0.00 | 88 | 1009.5 |
| 20260506082214 | 24 | 124 | 1.6 | 4.8 | 0.00 | 0.00 | 0.00 | 88 | 1009.8 |
| 20260506081712 | 24 | 144 | 1.6 | 4.8 | 0.00 | 0.00 | 0.00 | 88 | 1009.5 |
| 20260506081210 | 24 | 174 | 1.6 | 4.8 | 0.00 | 0.00 | 0.00 | 88 | 1009.5 |
| 20260506080707 | 24 | 149 | 9.7 | 14.5 | 0.00 | 0.00 | 0.00 | 88 | 1009.5 |
| 20260506080204 | 24 | 144 | 3.2 | 8.0 | 0.00 | 0.00 | 0.00 | 87 | 1009.5 |
| 20260506073148 | 24 | 141 | 4.8 | 8.0 | 0.00 | 0.00 | 0.00 | 87 | 1009.8 |
| 20260506072644 | 24 | 164 | 6.4 | 9.7 | 0.00 | 0.00 | 0.00 | 86 | 1010.2 |
| 20260506072142 | 24 | 151 | 4.8 | 6.4 | 0.00 | 0.00 | 0.00 | 86 | 1010.2 |
| 20260506071640 | 24 | 147 | 8.0 | 16.1 | 0.00 | 0.00 | 0.00 | 86 | 1010.2 |
| 20260506071137 | 24 | 195 | 6.4 | 11.3 | 0.00 | 0.00 | 0.00 | 86 | 1010.2 |
| 20260506070634 | 25 | 145 | 6.4 | 6.4 | 0.00 | 0.00 | 0.00 | 86 | 1010.5 |
| 20260506070131 | 25 | 187 | 6.4 | 8.0 | 0.00 | 0.00 | 0.00 | 86 | 1010.5 |
| 20260506062109 | 25 | 129 | 4.8 | 6.4 | 0.00 | 0.00 | 0.00 | 85 | 1010.5 |
| 20260506061604 | 25 | 154 | 8.0 | 9.7 | 0.00 | 0.00 | 0.00 | 84 | 1010.5 |
| 20260506061102 | 25 | 152 | 8.0 | 14.5 | 0.00 | 0.00 | 0.00 | 84 | 1010.5 |
| 20260506060600 | 25 | 166 | 3.2 | 6.4 | 0.00 | 0.00 | 0.00 | 84 | 1010.5 |
| 20260506051029 | 25 | 182 | 4.8 | 8.0 | 0.00 | 0.00 | 0.00 | 83 | 1010.5 |
| 20260506050527 | 25 | 184 | 4.8 | 8.0 | 0.00 | 0.00 | 0.00 | 83 | 1010.5 |
| 20260506045017 | 25 | 165 | 4.8 | 6.4 | 0.00 | 0.00 | 0.00 | 83 | 1010.5 |
| 20260506044515 | 25 | 180 | 8.0 | 12.9 | 0.00 | 0.00 | 0.00 | 83 | 1010.5 |
| 20260506044012 | 25 | 162 | 3.2 | 6.4 | 0.00 | 0.00 | 0.00 | 83 | 1010.5 |
| 20260506043509 | 25 | 201 | 3.2 | 4.8 | 0.00 | 0.00 | 0.00 | 83 | 1010.5 |
| 20260506043007 | 25 | 167 | 6.4 | 8.0 | 0.00 | 0.00 | 0.00 | 83 | 1010.2 |
| 20260506042506 | 25 | 170 | 8.0 | 11.3 | 0.00 | 0.00 | 0.00 | 83 | 1010.2 |
| 20260506042003 | 25 | 161 | 6.4 | 8.0 | 0.00 | 0.00 | 0.00 | 83 | 1010.2 |
| 20260506041502 | 25 | 188 | 3.2 | 6.4 | 0.00 | 0.00 | 0.00 | 83 | 1010.2 |
| 20260506040959 | 25 | 147 | 8.0 | 12.9 | 0.00 | 0.00 | 0.00 | 83 | 1009.8 |
| 20260506040456 | 25 | 191 | 4.8 | 8.0 | 0.00 | 0.00 | 0.00 | 83 | 1009.8 |
| 20260506035952 | 25 | 146 | 3.2 | 4.8 | 0.00 | 0.00 | 0.00 | 83 | 1010.2 |
| 20260506035449 | 25 | 156 | 4.8 | 9.7 | 0.00 | 0.00 | 0.00 | 83 | 1010.2 |
| 20260506034945 | 25 | 142 | 4.8 | 9.7 | 0.00 | 0.00 | 0.00 | 83 | 1010.2 |
| 20260506034443 | 25 | 165 | 4.8 | 8.0 | 0.00 | 0.00 | 0.00 | 83 | 1009.8 |
| 20260506033940 | 25 | 161 | 6.4 | 9.7 | 0.00 | 0.00 | 0.00 | 83 | 1009.8 |
| 20260506033438 | 25 | 144 | 3.2 | 9.7 | 0.00 | 0.00 | 0.00 | 82 | 1009.8 |
| 20260506032934 | 25 | 167 | 4.8 | 8.0 | 0.00 | 0.00 | 0.00 | 82 | 1009.5 |
| 20260506032431 | 25 | 194 | 4.8 | 6.4 | 0.00 | 0.00 | 0.00 | 82 | 1009.8 |
| 20260506031928 | 25 | 174 | 4.8 | 8.0 | 0.00 | 0.00 | 0.00 | 82 | 1009.8 |
| 20260506031425 | 25 | 158 | 6.4 | 17.7 | 0.00 | 0.00 | 0.00 | 82 | 1009.8 |
| 20260506030923 | 25 | 155 | 6.4 | 8.0 | 0.00 | 0.00 | 0.00 | 82 | 1009.8 |
| 20260506030421 | 25 | 185 | 4.8 | 6.4 | 0.00 | 0.00 | 0.00 | 82 | 1009.8 |
| 20260506025917 | 25 | 162 | 3.2 | 4.8 | 0.00 | 0.00 | 0.00 | 82 | 1009.5 |
| 20260506025414 | 25 | 158 | 6.4 | 8.0 | 0.00 | 0.00 | 0.00 | 82 | 1009.5 |
| 20260506024911 | 25 | 146 | 3.2 | 3.2 | 0.00 | 0.00 | 0.00 | 82 | 1009.5 |
| 20260506024408 | 25 | 166 | 3.2 | 4.8 | 0.00 | 0.00 | 0.00 | 82 | 1009.8 |
| 20260506023904 | 25 | 191 | 1.6 | 3.2 | 0.00 | 0.00 | 0.00 | 81 | 1009.8 |
| 20260506023401 | 25 | 162 | 0.0 | 3.2 | 0.00 | 0.00 | 0.00 | 81 | 1009.5 |
| 20260506022857 | 25 | 153 | 3.2 | 4.8 | 0.00 | 0.00 | 0.00 | 80 | 1009.1 |
| 20260506022355 | 25 | 179 | 4.8 | 8.0 | 0.00 | 0.00 | 0.00 | 80 | 1009.1 |
| 20260506021853 | 25 | 156 | 3.2 | 4.8 | 0.00 | 0.00 | 0.00 | 80 | 1009.1 |
| 20260506021350 | 25 | 208 | 3.2 | 6.4 | 0.00 | 0.00 | 0.00 | 80 | 1009.1 |
| 20260506020846 | 25 | 174 | 1.6 | 4.8 | 0.00 | 0.00 | 0.00 | 80 | 1009.1 |
| 20260506020345 | 25 | 158 | 4.8 | 6.4 | 0.00 | 0.00 | 0.00 | 80 | 1008.8 |
| 20260506015841 | 25 | 131 | 1.6 | 3.2 | 0.00 | 0.00 | 0.00 | 80 | 1009.1 |
| 20260506015339 | 25 | 185 | 3.2 | 6.4 | 0.00 | 0.00 | 0.00 | 80 | 1008.8 |
| 20260506014835 | 25 | 142 | 3.2 | 4.8 | 0.00 | 0.00 | 0.00 | 80 | 1008.8 |
| 20260506014332 | 25 | 137 | 0.0 | 0.0 | 0.00 | 0.00 | 0.00 | 80 | 1008.8 |
| 20260506013829 | 26 | 191 | 3.2 | 8.0 | 0.00 | 0.00 | 0.00 | 80 | 1008.5 |
| 20260506013326 | 26 | 141 | 3.2 | 4.8 | 0.00 | 0.00 | 0.00 | 79 | 1008.5 |
| 20260506012823 | 26 | 130 | 0.0 | 6.4 | 0.00 | 0.00 | 0.00 | 79 | 1008.5 |
| 20260506012320 | 26 | 147 | 3.2 | 4.8 | 0.00 | 0.00 | 0.00 | 79 | 1008.5 |
| 20260506011817 | 26 | 174 | 4.8 | 12.9 | 0.00 | 0.00 | 0.00 | 79 | 1008.1 |
| 20260506011314 | 26 | 150 | 4.8 | 6.4 | 0.00 | 0.00 | 0.00 | 78 | 1008.1 |
| 20260506010811 | 26 | 144 | 6.4 | 9.7 | 0.00 | 0.00 | 0.00 | 78 | 1008.1 |
| 20260506010309 | 26 | 167 | 3.2 | 6.4 | 0.00 | 0.00 | 0.00 | 78 | 1008.1 |
| 20260506005806 | 26 | 193 | 6.4 | 9.7 | 0.00 | 0.00 | 0.00 | 77 | 1008.1 |
| 20260506005305 | 26 | 164 | 4.8 | 9.7 | 0.00 | 0.00 | 0.00 | 77 | 1008.1 |
| 20260506004758 | 26 | 169 | 6.4 | 9.7 | 0.00 | 0.00 | 0.00 | 77 | 1007.8 |
| 20260506004257 | 26 | 167 | 6.4 | 12.9 | 0.00 | 0.00 | 0.00 | 77 | 1007.8 |
| 20260506003752 | 26 | 206 | 6.4 | 11.3 | 0.00 | 0.00 | 0.00 | 77 | 1007.8 |
| 20260506003249 | 26 | 182 | 4.8 | 9.7 | 0.00 | 0.00 | 0.00 | 77 | 1007.8 |
| 20260506002745 | 26 | 168 | 3.2 | 4.8 | 0.00 | 0.00 | 0.00 | 77 | 1007.8 |
| 20260506002241 | 26 | 203 | 4.8 | 6.4 | 0.00 | 0.00 | 0.00 | 77 | 1007.8 |
| 20260506001737 | 26 | 143 | 3.2 | 6.4 | 0.00 | 0.00 | 0.00 | 77 | 1007.8 |
| 20260506001235 | 26 | 165 | 1.6 | 3.2 | 0.00 | 0.00 | 0.00 | 77 | 1007.8 |
| 20260506000731 | 27 | 169 | 4.8 | 6.4 | 0.00 | 0.00 | 0.00 | 76 | 1007.8 |
| 20260506000229 | 27 | 188 | 6.4 | 11.3 | 0.00 | 0.00 | 0.00 | 76 | 1007.8 |
| 20260505235726 | 27 | 171 | 4.8 | 14.5 | 0.00 | 0.00 | 0.00 | 76 | 1007.8 |
| 20260505235224 | 27 | 193 | 6.4 | 8.0 | 0.00 | 0.00 | 0.00 | 76 | 1007.8 |
| 20260505234720 | 27 | 144 | 6.4 | 9.7 | 0.00 | 0.00 | 0.00 | 76 | 1007.8 |
| 20260505234218 | 27 | 144 | 6.4 | 8.0 | 0.00 | 0.00 | 0.00 | 76 | 1007.8 |
| 20260505233714 | 27 | 135 | 4.8 | 8.0 | 0.00 | 0.00 | 0.00 | 75 | 1007.8 |
| 20260505233212 | 27 | 182 | 3.2 | 6.4 | 0.00 | 0.00 | 0.00 | 74 | 1007.8 |
| 20260505232709 | 27 | 165 | 4.8 | 8.0 | 0.00 | 0.00 | 0.00 | 74 | 1007.8 |
| 20260505232207 | 27 | 195 | 4.8 | 6.4 | 0.00 | 0.00 | 0.00 | 74 | 1007.4 |
| 20260505231703 | 27 | 132 | 3.2 | 11.3 | 0.00 | 0.00 | 0.00 | 73 | 1007.4 |
| 20260505231203 | 27 | 167 | 8.0 | 14.5 | 0.00 | 0.00 | 0.00 | 73 | 1007.8 |
| 20260505230700 | 27 | 147 | 9.7 | 17.7 | 0.00 | 0.00 | 0.00 | 73 | 1007.8 |
| 20260505230156 | 27 | 163 | 8.0 | 12.9 | 0.00 | 0.00 | 0.00 | 72 | 1007.8 |
| 20260505225653 | 27 | 164 | 9.7 | 17.7 | 0.00 | 0.00 | 0.00 | 73 | 1007.4 |
| 20260505225149 | 27 | 201 | 8.0 | 14.5 | 0.00 | 0.00 | 0.00 | 73 | 1007.8 |
| 20260505224645 | 28 | 176 | 8.0 | 11.3 | 0.00 | 0.00 | 0.00 | 73 | 1007.8 |
| 20260505224143 | 28 | 167 | 4.8 | 9.7 | 0.00 | 0.00 | 0.00 | 72 | 1007.8 |
| 20260505223641 | 28 | 95 | 1.6 | 4.8 | 0.00 | 0.00 | 0.00 | 72 | 1007.8 |
| 20260505223136 | 27 | 182 | 6.4 | 11.3 | 0.00 | 0.00 | 0.00 | 72 | 1007.8 |
| 20260505222632 | 27 | 151 | 9.7 | 16.1 | 0.00 | 0.00 | 0.00 | 72 | 1007.4 |
| 20260505222129 | 28 | 148 | 4.8 | 14.5 | 0.00 | 0.00 | 0.00 | 71 | 1007.4 |
| 20260505221626 | 28 | 175 | 6.4 | 11.3 | 0.00 | 0.00 | 0.00 | 71 | 1007.4 |
| 20260505221122 | 28 | 152 | 6.4 | 16.1 | 0.00 | 0.00 | 0.00 | 72 | 1007.4 |
| 20260505220620 | 28 | 173 | 8.0 | 16.1 | 0.00 | 0.00 | 0.00 | 72 | 1007.4 |
| 20260505220118 | 28 | 183 | 6.4 | 11.3 | 0.00 | 0.00 | 0.00 | 72 | 1007.4 |
| 20260505215615 | 28 | 202 | 11.3 | 14.5 | 0.00 | 0.00 | 0.00 | 71 | 1007.8 |
| 20260505215113 | 28 | 198 | 9.7 | 17.7 | 0.00 | 0.00 | 0.00 | 71 | 1007.4 |
| 20260505214611 | 28 | 137 | 8.0 | 14.5 | 0.00 | 0.00 | 0.00 | 71 | 1007.4 |
| 20260505214108 | 28 | 236 | 6.4 | 11.3 | 0.00 | 0.00 | 0.00 | 71 | 1007.4 |
| 20260505213605 | 28 | 153 | 4.8 | 14.5 | 0.00 | 0.00 | 0.00 | 71 | 1007.8 |
| 20260505213102 | 28 | 151 | 8.0 | 12.9 | 0.00 | 0.00 | 0.00 | 71 | 1008.1 |
| 20260505212558 | 28 | 159 | 4.8 | 9.7 | 0.00 | 0.00 | 0.00 | 71 | 1007.8 |
| 20260505212056 | 28 | 146 | 6.4 | 12.9 | 0.00 | 0.00 | 0.00 | 72 | 1008.1 |
| 20260505211552 | 28 | 161 | 4.8 | 17.7 | 0.00 | 0.00 | 0.00 | 71 | 1008.1 |
| 20260505211049 | 28 | 173 | 8.0 | 14.5 | 0.00 | 0.00 | 0.00 | 70 | 1008.1 |
| 20260505210546 | 28 | 168 | 9.7 | 16.1 | 0.00 | 0.00 | 0.00 | 71 | 1008.1 |
| 20260505210043 | 28 | 156 | 4.8 | 8.0 | 0.00 | 0.00 | 0.00 | 71 | 1008.5 |
| 20260505205541 | 29 | 180 | 8.0 | 20.9 | 0.00 | 0.00 | 0.00 | 70 | 1008.1 |
| 20260505205038 | 29 | 208 | 8.0 | 14.5 | 0.00 | 0.00 | 0.00 | 71 | 1008.5 |
| 20260505204535 | 28 | 185 | 8.0 | 11.3 | 0.00 | 0.00 | 0.00 | 71 | 1008.5 |
| 20260505204032 | 28 | 182 | 8.0 | 14.5 | 0.00 | 0.00 | 0.00 | 70 | 1008.5 |
| 20260505203529 | 28 | 167 | 6.4 | 19.3 | 0.00 | 0.00 | 0.00 | 71 | 1008.5 |
| 20260505203026 | 28 | 183 | 11.3 | 25.7 | 0.00 | 0.00 | 0.00 | 73 | 1008.8 |
| 20260505202522 | 28 | 198 | 8.0 | 14.5 | 0.00 | 0.00 | 0.00 | 72 | 1009.1 |
| 20260505202018 | 27 | 178 | 9.7 | 16.1 | 0.00 | 0.00 | 0.00 | 72 | 1008.8 |
| 20260505201516 | 28 | 177 | 6.4 | 12.9 | 0.00 | 0.00 | 0.00 | 72 | 1009.1 |
| 20260505201013 | 28 | 178 | 4.8 | 8.0 | 0.00 | 0.00 | 0.00 | 72 | 1009.1 |
| 20260505200511 | 27 | 179 | 8.0 | 16.1 | 0.00 | 0.00 | 0.00 | 73 | 1009.1 |
| 20260505200007 | 28 | 144 | 8.0 | 14.5 | 0.00 | 0.00 | 0.00 | 72 | 1009.1 |
| 20260505195503 | 28 | 165 | 9.7 | 16.1 | 0.00 | 0.00 | 0.00 | 72 | 1009.1 |
| 20260505195001 | 28 | 217 | 9.7 | 19.3 | 0.00 | 0.00 | 0.00 | 72 | 1009.1 |
| 20260505194458 | 28 | 210 | 9.7 | 14.5 | 0.00 | 0.00 | 0.00 | 72 | 1009.5 |
| 20260505193958 | 28 | 180 | 6.4 | 11.3 | 0.00 | 0.00 | 0.00 | 72 | 1009.1 |
| 20260505193456 | 28 | 180 | 3.2 | 9.7 | 0.00 | 0.00 | 0.00 | 73 | 1009.1 |
| 20260505192953 | 28 | 144 | 6.4 | 17.7 | 0.00 | 0.00 | 0.00 | 73 | 1009.5 |
| 20260505192452 | 27 | 145 | 6.4 | 9.7 | 0.00 | 0.00 | 0.00 | 74 | 1009.5 |
| 20260505191949 | 27 | 168 | 9.7 | 16.1 | 0.00 | 0.00 | 0.00 | 74 | 1009.5 |
| 20260505191447 | 27 | 163 | 12.9 | 20.9 | 0.00 | 0.00 | 0.00 | 75 | 1009.5 |
| 20260505190944 | 27 | 193 | 8.0 | 11.3 | 0.00 | 0.00 | 0.00 | 75 | 1009.5 |
| 20260505190439 | 27 | 176 | 9.7 | 17.7 | 0.00 | 0.00 | 0.00 | 74 | 1009.5 |
| 20260505185935 | 27 | 217 | 8.0 | 16.1 | 0.00 | 0.00 | 0.00 | 74 | 1009.5 |
| 20260505185432 | 27 | 198 | 6.4 | 9.7 | 0.00 | 0.00 | 0.00 | 74 | 1009.5 |
| 20260505184928 | 27 | 169 | 9.7 | 16.1 | 0.00 | 0.00 | 0.00 | 74 | 1009.5 |
| 20260505184425 | 27 | 169 | 6.4 | 12.9 | 0.00 | 0.00 | 0.00 | 76 | 1009.5 |
| 20260505183922 | 27 | 178 | 12.9 | 19.3 | 0.00 | 0.00 | 0.00 | 76 | 1009.8 |
| 20260505183419 | 27 | 180 | 9.7 | 17.7 | 0.00 | 0.00 | 0.00 | 76 | 1009.8 |
| 20260505182916 | 27 | 175 | 8.0 | 14.5 | 0.00 | 0.00 | 0.00 | 75 | 1009.8 |
| 20260505182412 | 27 | 171 | 3.2 | 6.4 | 0.00 | 0.00 | 0.00 | 75 | 1009.8 |
| 20260505181909 | 27 | 162 | 9.7 | 22.5 | 0.00 | 0.00 | 0.00 | 76 | 1009.8 |
| 20260505181406 | 27 | 156 | 8.0 | 12.9 | 0.00 | 0.00 | 0.00 | 76 | 1009.8 |
| 20260505180903 | 26 | 193 | 11.3 | 17.7 | 0.00 | 0.00 | 0.00 | 76 | 1010.2 |
| 20260505180400 | 26 | 167 | 6.4 | 14.5 | 0.00 | 0.00 | 0.00 | 78 | 1010.2 |
| 20260505175856 | 26 | 160 | 6.4 | 16.1 | 0.00 | 0.00 | 0.00 | 77 | 1010.2 |
| 20260505175352 | 26 | 224 | 8.0 | 16.1 | 0.00 | 0.00 | 0.00 | 77 | 1010.2 |
| 20260505174849 | 26 | 170 | 8.0 | 12.9 | 0.00 | 0.00 | 0.00 | 76 | 1010.2 |
| 20260505174347 | 27 | 149 | 8.0 | 16.1 | 0.00 | 0.00 | 0.00 | 76 | 1010.2 |
| 20260505173842 | 26 | 168 | 4.8 | 11.3 | 0.00 | 0.00 | 0.00 | 77 | 1010.2 |
| 20260505173339 | 26 | 188 | 8.0 | 14.5 | 0.00 | 0.00 | 0.00 | 78 | 1010.2 |
| 20260505172836 | 26 | 156 | 8.0 | 11.3 | 0.00 | 0.00 | 0.00 | 77 | 1010.2 |
| 20260505172334 | 26 | 153 | 6.4 | 17.7 | 0.00 | 0.00 | 0.00 | 77 | 1010.2 |
| 20260505171833 | 26 | 196 | 4.8 | 8.0 | 0.00 | 0.00 | 0.00 | 79 | 1010.5 |
| 20260505171331 | 26 | 196 | 4.8 | 8.0 | 0.00 | 0.00 | 0.00 | 79 | 1010.5 |
| 20260505170827 | 25 | 161 | 8.0 | 12.9 | 0.00 | 0.00 | 0.00 | 80 | 1010.5 |
| 20260505170324 | 25 | 201 | 8.0 | 11.3 | 0.00 | 0.00 | 0.00 | 80 | 1010.5 |
| 20260505165819 | 25 | 161 | 8.0 | 14.5 | 0.00 | 0.00 | 0.00 | 80 | 1010.5 |
| 20260505165315 | 25 | 175 | 9.7 | 17.7 | 0.00 | 0.00 | 0.00 | 80 | 1010.5 |
| 20260505164811 | 25 | 166 | 6.4 | 12.9 | 0.00 | 0.00 | 0.00 | 79 | 1010.5 |
| 20260505164308 | 26 | 174 | 8.0 | 16.1 | 0.00 | 0.00 | 0.00 | 79 | 1010.5 |
| 20260505163806 | 26 | 153 | 9.7 | 20.9 | 0.00 | 0.00 | 0.00 | 78 | 1010.5 |
| 20260505163305 | 26 | 175 | 4.8 | 11.3 | 0.00 | 0.00 | 0.00 | 79 | 1010.5 |
| 20260505162802 | 25 | 174 | 9.7 | 17.7 | 0.00 | 0.00 | 0.00 | 80 | 1010.5 |
| 20260505162258 | 25 | 179 | 9.7 | 14.5 | 0.00 | 0.00 | 0.00 | 80 | 1010.8 |
| 20260505161755 | 25 | 205 | 9.7 | 16.1 | 0.00 | 0.00 | 0.00 | 81 | 1010.8 |
| 20260505161253 | 25 | 149 | 6.4 | 9.7 | 0.00 | 0.00 | 0.00 | 81 | 1010.8 |
| 20260505160750 | 25 | 195 | 8.0 | 14.5 | 0.00 | 0.00 | 0.00 | 81 | 1010.8 |
| 20260505160248 | 25 | 159 | 6.4 | 9.7 | 0.00 | 0.00 | 0.00 | 82 | 1010.8 |
| 20260505153227 | 24 | 202 | 9.7 | 14.5 | 0.00 | 0.00 | 0.00 | 82 | 1010.5 |
| 20260505152724 | 24 | 191 | 6.4 | 11.3 | 0.00 | 0.00 | 0.00 | 82 | 1010.5 |
| 20260505152220 | 24 | 188 | 1.6 | 6.4 | 0.00 | 0.00 | 0.00 | 83 | 1010.5 |
| 20260505151715 | 24 | 178 | 6.4 | 14.5 | 0.00 | 0.00 | 0.00 | 82 | 1010.5 |
| 20260505151213 | 24 | 170 | 9.7 | 16.1 | 0.00 | 0.00 | 0.00 | 82 | 1010.5 |
| 20260505150709 | 24 | 167 | 3.2 | 9.7 | 0.00 | 0.00 | 0.00 | 83 | 1010.5 |
| 20260505150206 | 24 | 144 | 4.8 | 6.4 | 0.00 | 0.00 | 0.00 | 84 | 1010.5 |
| 20260505140639 | 23 | 168 | 8.0 | 11.3 | 0.00 | 0.00 | 0.00 | 86 | 1010.2 |
| 20260505140136 | 23 | 133 | 1.6 | 3.2 | 0.00 | 0.00 | 0.00 | 86 | 1010.5 |
| 20260505124549 | 22 | 142 | 4.8 | 8.0 | 0.00 | 0.00 | 0.00 | 88 | 1010.5 |
| 20260505124046 | 21 | 165 | 6.4 | 11.3 | 0.00 | 0.00 | 0.00 | 88 | 1010.2 |
| 20260505123542 | 21 | 191 | 4.8 | 8.0 | 0.00 | 0.00 | 0.00 | 88 | 1009.8 |
| 20260505123038 | 21 | 110 | 3.2 | 4.8 | 0.00 | 0.00 | 0.00 | 89 | 1009.8 |
| 20260505122536 | 21 | 190 | 6.4 | 6.4 | 0.00 | 0.00 | 0.00 | 89 | 1009.8 |
| 20260505122032 | 21 | 182 | 4.8 | 8.0 | 0.00 | 0.00 | 0.00 | 89 | 1009.8 |
| 20260505121529 | 21 | 182 | 9.7 | 16.1 | 0.00 | 0.00 | 0.00 | 89 | 1009.8 |
| 20260505121026 | 21 | 164 | 3.2 | 8.0 | 0.00 | 0.00 | 0.00 | 89 | 1010.2 |
| 20260505120522 | 21 | 127 | 1.6 | 4.8 | 0.00 | 0.00 | 0.00 | 89 | 1009.8 |
| 20260505120017 | 21 | 176 | 4.8 | 6.4 | 0.00 | 0.00 | 0.00 | 89 | 1009.8 |
| 20260505115512 | 21 | 208 | 4.8 | 11.3 | 0.00 | 0.00 | 0.00 | 89 | 1010.2 |
| 20260505115010 | 21 | 169 | 4.8 | 6.4 | 0.00 | 0.00 | 0.00 | 89 | 1010.2 |
| 20260505114507 | 21 | 213 | 4.8 | 8.0 | 0.00 | 0.00 | 0.00 | 89 | 1009.8 |
| 20260505114003 | 21 | 213 | 4.8 | 8.0 | 0.00 | 0.00 | 0.00 | 88 | 1009.8 |
| 20260505113500 | 21 | 172 | 3.2 | 8.0 | 0.00 | 0.00 | 0.00 | 88 | 1009.8 |
| 20260505112955 | 21 | 185 | 3.2 | 4.8 | 0.00 | 0.00 | 0.00 | 88 | 1009.8 |
| 20260505112453 | 21 | 183 | 8.0 | 9.7 | 0.00 | 0.00 | 0.00 | 88 | 1009.8 |
| 20260505111950 | 21 | 208 | 6.4 | 9.7 | 0.00 | 0.00 | 0.00 | 88 | 1009.8 |
| 20260505111443 | 21 | 184 | 6.4 | 11.3 | 0.00 | 0.00 | 0.00 | 88 | 1009.8 |
| 20260505110940 | 21 | 160 | 1.6 | 4.8 | 0.00 | 0.00 | 0.00 | 88 | 1009.8 |
| 20260505110437 | 21 | 188 | 9.7 | 16.1 | 0.00 | 0.00 | 0.00 | 88 | 1009.8 |
| 20260505101909 | 21 | 188 | 6.4 | 11.3 | 0.00 | 0.00 | 0.00 | 88 | 1009.5 |
| 20260505101408 | 21 | 154 | 6.4 | 17.7 | 0.00 | 0.00 | 0.00 | 88 | 1009.8 |
| 20260505100905 | 21 | 161 | 3.2 | 4.8 | 0.00 | 0.00 | 0.00 | 88 | 1009.8 |
| 20260505100401 | 21 | 180 | 4.8 | 9.7 | 0.00 | 0.00 | 0.00 | 88 | 1009.8 |
| 20260505095857 | 21 | 182 | 4.8 | 6.4 | 0.00 | 0.00 | 0.00 | 88 | 1010.2 |
| 20260505095355 | 21 | 193 | 4.8 | 11.3 | 0.00 | 0.00 | 0.00 | 88 | 1010.2 |
| 20260505094850 | 21 | 165 | 3.2 | 4.8 | 0.00 | 0.00 | 0.00 | 88 | 1010.2 |
| 20260505094348 | 21 | 156 | 3.2 | 3.2 | 0.00 | 0.00 | 0.00 | 88 | 1009.8 |
| 20260505093843 | 21 | 168 | 3.2 | 6.4 | 0.00 | 0.00 | 0.00 | 88 | 1009.8 |
| 20260505093341 | 21 | 165 | 3.2 | 6.4 | 0.00 | 0.00 | 0.00 | 87 | 1009.8 |
| 20260505092838 | 21 | 214 | 3.2 | 4.8 | 0.00 | 0.00 | 0.00 | 88 | 1010.2 |
| 20260505092336 | 21 | 176 | 4.8 | 9.7 | 0.00 | 0.00 | 0.00 | 87 | 1010.2 |
| 20260505091833 | 21 | 156 | 6.4 | 11.3 | 0.00 | 0.00 | 0.00 | 87 | 1010.2 |
| 20260505091331 | 21 | 162 | 4.8 | 6.4 | 0.00 | 0.00 | 0.00 | 87 | 1010.2 |
| 20260505090829 | 21 | 175 | 4.8 | 8.0 | 0.00 | 0.00 | 0.00 | 87 | 1010.2 |
| 20260505090327 | 21 | 146 | 6.4 | 9.7 | 0.00 | 0.00 | 0.00 | 87 | 1010.2 |
| 20260505085824 | 21 | 151 | 4.8 | 9.7 | 0.00 | 0.00 | 0.00 | 87 | 1010.2 |
| 20260505085322 | 21 | 165 | 9.7 | 17.7 | 0.00 | 0.00 | 0.00 | 86 | 1010.2 |